Overview Statistics Trail Chart Weather Telemetry Raw packets
 

This is the latest recevied weather packets stored in our database for station/object SP3ZBZ-13. If no packets are shown the sender has not sent any weather packets the latest 10 day(s).

<< 9 10 11 12 13 14 15 >>
Time Temp. Humidity Pressure Rain* Wind** Luminosity Snow
1788375123 15.56° C 84% 1014.1 hPa 0.76 mm - - -
1788374222 16.11° C 83% 1014.1 hPa 0.76 mm - - -
1788373321 16.67° C 81% 1014 hPa 0.76 mm - - -
1788372442 16.67° C 82% 1013.8 hPa 0.76 mm - - -
1788371519 17.22° C 78% 1013.8 hPa 0.76 mm - - -
1788370618 18.33° C 73% 1013.7 hPa 0.76 mm - 3 W/m² -
1788369717 18.33° C 69% 1013.7 hPa 0.76 mm - 7 W/m² -
1788368816 18.89° C 69% 1013.8 hPa 0.76 mm - 18 W/m² -
1788367915 18.89° C 66% 1013.9 hPa 0.76 mm - 40 W/m² -
1788367014 19.44° C 65% 1013.9 hPa 0.76 mm - 53 W/m² -
1788366113 19.44° C 64% 1013.9 hPa 0.76 mm - 79 W/m² -
1788365212 19.44° C 64% 1014 hPa 0.76 mm - 68 W/m² -
1788364311 19.44° C 64% 1014 hPa 0.76 mm - 68 W/m² -
1788363410 19.44° C 62% 1014 hPa 0.76 mm - 73 W/m² -
1788362509 20° C 63% 1014.1 hPa 0.76 mm - 146 W/m² -
1788361608 20° C 59% 1014.3 hPa 0.76 mm - 177 W/m² -
1788360708 20° C 60% 1014.3 hPa 0.76 mm - 158 W/m² -
1788359806 20.56° C 58% 1014.2 hPa 0.76 mm - 183 W/m² -
1788358908 20.56° C 57% 1014.3 hPa 0.76 mm - 275 W/m² -
1788358005 20° C 58% 1014.4 hPa 1.02 mm - 259 W/m² -
1788357103 20.56° C 58% 1014.4 hPa 1.02 mm - 300 W/m² -
1788356202 20° C 59% 1014.5 hPa 1.02 mm - 223 W/m² -
1788355301 20° C 60% 1014.6 hPa 2.29 mm - 282 W/m² -
1788354400 20° C 61% 1014.5 hPa 2.29 mm - 196 W/m² -
1788353499 20.56° C 58% 1014.5 hPa 2.29 mm - 560 W/m² -

* Rain latest 24 hours (hover to see other rain measurements)
** Current wind speed in m/s (hover to see current wind gust speed)